Weather History for Martha's Vineyard, MA

Change the Weather History Date:

Saturday, February 2, 2013

  Actual Average Record
Temperature  
Mean Temperature 26 °F -  
Max Temperature 32 °F 39 °F 54 °F (1951)
Min Temperature 21 °F 23 °F -9 °F (1961)
Degree Days  
Heating Degree Days 38    
Moisture  
Dew Point 14 °F    
Average Humidity 59    
Maximum Humidity 93    
Minimum Humidity 43    
Precipitation  
Precipitation 0.00 in - - ()
Sea Level Pressure  
Sea Level Pressure 30.14 in    
Wind  
Wind Speed 12 mph (West)    
Max Wind Speed 15 mph    
Max Gust Speed 26 mph    
Visibility 8 miles    
Events Snow    
Averages and records for this station are not official NWS values.
T = Trace of Precipitation, MM = Missing Value Source: NWS Daily Summary

Daily Weather History Graph

Daily Weather History Graph

Search for Another Location

Airport:

Trip Planner

Search our weather history database for the weather conditions in past years. The results will help you decide how hot, cold, wet, or windy it might be!

Date:

Astronomy

Feb. 02, 2013 Rise Set
Actual Time 6:52 AM EST 5:00 PM EST
Civil Twilight 6:23 AM EST 5:29 PM EST
Nautical Twilight 5:50 AM EST 6:02 PM EST
Astronomical Twilight 5:18 AM EST 6:34 PM EST
Moon No Moon Rise 9:55 AM EST (2/2)
Length of Visible Light 11h 05m
Length of Day
10h 07m
Waning Gibbous, 60% of the Moon is Illuminated
Feb 2
Waning Gibbous
Feb 3
Last Quarter
Feb 10
New
Feb 17
First Quarter
Feb 25
Full

Hourly Weather History & Observations

Time (EST) Temp. Windchill Dew Point Humidity Pressure Visibility Wind Dir Wind Speed Gust Speed Precip Events Conditions
12:53 AM 23.0 °F 10.1 °F 5.0 °F 46% 30.13 in 10.0 mi WNW 15.0 mph 25.3 mph N/A   Clear
1:53 AM 23.0 °F 10.1 °F 5.0 °F 46% 30.15 in 10.0 mi NW 15.0 mph 25.3 mph N/A   Partly Cloudy
2:53 AM 23.0 °F 10.6 °F 5.0 °F 46% 30.16 in 10.0 mi WNW 13.8 mph 26.5 mph N/A   Partly Cloudy
3:53 AM 21.9 °F 9.2 °F 5.0 °F 48% 30.18 in 10.0 mi WNW 13.8 mph 19.6 mph N/A   Clear
4:53 AM 21.9 °F 10.4 °F 6.1 °F 51% 30.19 in 10.0 mi WNW 11.5 mph 24.2 mph N/A   Clear
5:53 AM 21.9 °F 10.4 °F 6.1 °F 51% 30.21 in 10.0 mi WNW 11.5 mph 18.4 mph N/A   Clear
7:53 AM 23.0 °F 14.7 °F 7.0 °F 50% 30.25 in 10.0 mi WNW 6.9 mph 17.3 mph N/A   Clear
8:53 AM 25.0 °F 14.8 °F 6.1 °F 45% 30.26 in 10.0 mi WNW 10.4 mph - N/A   Clear
9:53 AM 27.0 °F 15.2 °F 7.0 °F 43% 30.27 in 10.0 mi West 15.0 mph 25.3 mph N/A   Clear
10:53 AM 27.0 °F 18.0 °F 7.0 °F 43% 30.27 in 10.0 mi WNW 9.2 mph 18.4 mph N/A   Clear
11:53 AM 28.9 °F 20.4 °F 9.0 °F 43% 30.23 in 10.0 mi West 9.2 mph 18.4 mph N/A   Partly Cloudy
12:53 PM 28.9 °F 22.8 °F 10.9 °F 47% 30.20 in 10.0 mi Variable 5.8 mph 16.1 mph N/A   Overcast
1:53 PM 28.9 °F 20.4 °F 14.0 °F 54% 30.17 in 10.0 mi WSW 9.2 mph - N/A   Mostly Cloudy
2:53 PM 30.0 °F 19.1 °F 12.9 °F 49% 30.15 in 10.0 mi SW 15.0 mph 21.9 mph N/A   Mostly Cloudy
3:53 PM 28.9 °F 19.8 °F 15.1 °F 56% 30.13 in 10.0 mi SW 10.4 mph 17.3 mph N/A   Mostly Cloudy
4:53 PM 30.0 °F 21.1 °F 17.1 °F 59% 30.12 in 10.0 mi SW 10.4 mph 18.4 mph N/A   Overcast
5:53 PM 30.9 °F 20.2 °F 16.0 °F 54% 30.11 in 10.0 mi SW 15.0 mph 24.2 mph N/A   Overcast
6:53 PM 32.0 °F 23.0 °F 17.1 °F 54% 30.10 in 10.0 mi SW 11.5 mph 24.2 mph N/A   Mostly Cloudy
7:53 PM 32.0 °F 22.5 °F 19.9 °F 61% 30.08 in 10.0 mi WSW 12.7 mph 17.3 mph N/A   Overcast
8:53 PM 32.0 °F 24.2 °F 21.0 °F 64% 30.07 in 10.0 mi WSW 9.2 mph 18.4 mph N/A   Overcast
9:53 PM 32.0 °F 25.6 °F 25.0 °F 75% 30.06 in 6.0 mi West 6.9 mph - 0.00 in Snow Light Snow
10:53 PM 30.9 °F 23.5 °F 27.0 °F 85% 30.06 in 3.0 mi West 8.1 mph - 0.00 in Snow Light Snow
11:01 PM 30.2 °F 22.6 °F 26.6 °F 86% 30.05 in 2.0 mi West 8.1 mph - 0.00 in Snow Light Snow
11:18 PM 30.2 °F 22.6 °F 28.4 °F 93% 30.05 in 2.0 mi West 8.1 mph - 0.00 in Snow Light Snow
11:25 PM 30.2 °F 24.3 °F 28.4 °F 93% 30.05 in 1.8 mi West 5.8 mph - 0.00 in Snow Light Snow
11:53 PM 30.0 °F 24.1 °F 28.0 °F 92% 30.05 in 1.8 mi West 5.8 mph - 0.00 in Snow Light Snow